Regional Weather Roundup
Issued by NWS

Home | Current Version | Previous Version | Graphics & Text | Print | Product List | Glossary On
Versions: 1 2 3 4 5 6 7 8 9 10 11 12 13 14 15 16 17 18 19 20 21 22 23 24 25 26 27 28 29 30 31 32 33 34 35 36 37 38 39 40 41 42 43 44 45 46 47 48 49 50
000
ASUS43 KMPX 030301
RWRMN
WEATHER ROUNDUP FOR MINNESOTA
NATIONAL WEATHER SERVICE TWIN CITIES/CHANHASSEN MN
1000 PM CDT TUE SEP 02 2014


NOTE: "FAIR" INDICATES FEW OR NO CLOUDS BELOW 12,000 FEET WITH NO
SIGNIFICANT WEATHER AND/OR OBSTRUCTIONS TO VISIBILITY. N/A MEANS
CURRENT SKY AND/OR WEATHER CONDITIONS ARE NOT AVAILABLE.

MNZ060>063-068>070-030400-
   Twin Cities Metro

CITY           SKY/WX    TMP DP  RH WIND       PRES   REMARKS
TWIN CITIES    PTCLDY    70  57  63 SW6       29.87S
ST PAUL        CLEAR     66  58  75 E3        29.87S
CRYSTAL        CLEAR     68  55  63 S5        29.85S
BLAINE         CLEAR     64  55  72 S3        29.87S
LAKEVILLE      CLEAR     63  57  82 SW3       29.89S
EDEN PRAIRIE   CLEAR     65  58  78 SW5       29.87R
SOUTH ST PAUL  CLEAR     68  56  67 CALM      29.87S
LAKE ELMO      FAIR      59  57  94 S3        29.88S
$$
MNZ001>005-007-008-013>017-022>024-027-028-030400-
   Northwest Minnesota

CITY           SKY/WX    TMP DP  RH WIND       PRES   REMARKS
BEMIDJI        PTCLDY    61  54  78 S5        29.76R
HALLOCK        CLEAR     55  54  94 CALM      29.71R
ROSEAU         CLEAR     54  48  82 S5        29.71R
WARROAD        PTCLDY    55  52  88 SW6       29.71R
THIEF RVR FALL MOCLDY    57  54  88 E5        29.73R
CROOKSTON      MOCLDY    63  54  72 W6        29.72R
FOSSTON        PTCLDY    57  54  88 S8        29.75S
DETROIT LAKES  PTCLDY    68  55  64 SW10      29.78S
MOORHEAD       PTCLDY    61  61 100 NW3       29.76R
PARK RAPIDS    MOCLDY    66  55  67 S5        29.78R
MAHNOMEN       FAIR      61  56  84 S7        29.75S
$$
MNZ006-009>011-018-025>026-030400-
   North Central Minnesota

CITY           SKY/WX    TMP DP  RH WIND       PRES   REMARKS
BAUDETTE       MOCLDY    57  53  86 S8        29.70S
FLAG ISLAND    CLEAR     61  55  82 S3        29.68S
INTL FALLS     CLOUDY    57  54  89 S3        29.74F
WASKISH        LGT RAIN  55  55 100 SE5       29.77F
BIG FORK       TSTM      57  54  88 CALM      29.81R
LONGVILLE      DRIZZLE   64  57  77 W3        29.80R
GRAND RAPIDS   MOCLDY    64  54  68 S9        29.79R
CRANE LAKE     TSTM      57  55  94 N7        29.81R
ORR            TSTM      57  54  88 CALM      29.78R
COOK           MOCLDY    57  54  88 SE3       29.77F
WALKER         FAIR      59  58  96 S3        29.77F
$$
MNZ012-019>021-037-030400-
   Northeast Minnesota

CITY           SKY/WX    TMP DP  RH WIND       PRES   REMARKS
DULUTH         PTCLDY    58  53  84 SE5       29.82S
ELY            PTCLDY    54  50  87 CALM      29.78F
HIBBING        MOCLDY    55  53  93 CALM      29.79S
EVELETH        FOG       52  52 100 CALM      29.80F VSB 3/4
DULUTH HARBOR  CLEAR     63  55  77 CALM      29.81F
TWO HARBORS    CLEAR     52  46  82 CALM      29.81S HAZE
SILVER BAY     FOG       48  48 100 CALM      29.81S VSB 1
GRAND MARAIS     N/A     55  52  89 CALM      29.79S
G MARAIS ARPRT CLEAR     50  45  81 CALM      29.83S
$$
MNZ029>031-032-039>041-046>048-054>057-064-030400-
   West Central Minnesota

CITY           SKY/WX    TMP DP  RH WIND       PRES   REMARKS
FERGUS FALLS   CLEAR     66  55  68 S13       29.79R
WHEATON        CLEAR     63  55  77 S9        29.81S
MORRIS         CLEAR     63  57  82 S9        29.81F
ALEXANDRIA     CLEAR     66  56  70 S12       29.84S
ELBOW LAKE     FAIR      63  57  81 S10       29.81R
WADENA         CLEAR     61  55  82 SW6       29.80S
GLENWOOD       CLEAR     59  55  88 S5        29.85S
APPLETON       CLEAR     68  55  64 S8        29.82F
BENSON         CLEAR     63  57  82 SW7       29.84S
ORTONVILLE     PTCLDY    63  55  77 S3        29.82S
MADISON        PTCLDY    64  57  77 S8        29.84S
WILLMAR        FAIR      64  55  72 CALM      29.88S
$$
MNZ033>034-036-042>043-049>051-058-059-030400-
   Central Minnesota

CITY           SKY/WX    TMP DP  RH WIND       PRES   REMARKS
ST CLOUD       CLEAR     65  58  78 S6        29.84S
SAUK CENTRE    FAIR      61  55  82 S7        29.85S
PAYNESVILLE    HVY RAIN  63  55  75 SE8       29.86S
AITKIN         PTCLDY    66  57  72 S7        29.80S
PINE RIVER     MOCLDY    64  55  72 S7        29.82F
BRAINERD       PTCLDY    63  55  75 SW10      29.82R
STAPLES        CLEAR     63  55  77 S8        29.81S
LONG PRAIRIE   FAIR      63  55  77 S9        29.84S
LITTLE FALLS   CLEAR     63  54  72 S3        29.83S
LITCHFIELD     CLEAR     64  61  88 CALM      29.87S
BUFFALO        CLEAR     66  57  71 CALM      29.87S
MAPLE LAKE     CLEAR     66  59  80 S3        29.87S
$$
MNZ037-044-045-052-053-030400-
   East Central Minnesota

CITY           SKY/WX    TMP DP  RH WIND       PRES   REMARKS
PRINCETON      CLEAR     66  57  72 S5        29.85S
MORA           CLEAR     61  52  72 SW5       29.85F
CAMBRIDGE      CLEAR     66  54  63 S5        29.84S
RUSH CITY      PTCLDY    64  54  69 S5        29.85S
MOOSE LAKE     CLEAR     55  52  88 CALM      29.81S
HINCKLEY       FAIR      61  55  82 SW3       29.84S
CLOQUET        PTCLDY    61  52  72 S3        29.81F
MCGREGOR       MOCLDY    63  55  77 S5        29.81S
$$
MNZ071>073-080-081-089-090-097-098-030400-
   Southwest Minnesota

CITY           SKY/WX    TMP DP  RH WIND       PRES   REMARKS
MONTEVIDEO     PTCLDY    64  55  72 SW7       29.86S
GRANITE FALLS  PTCLDY    59  56  91 S6        29.88S
CANBY          PTCLDY    62  56  81 S5        29.86S
MARSHALL       MOCLDY    63  55  77 S7        29.86S
REDWOOD FALLS  PTCLDY    64  58  80 S9        29.87S
OLIVIA         PTCLDY    64  55  72 S7        29.87S
PIPESTONE      MOCLDY    59  55  88 S5        29.90S
WINDOM         PTCLDY    64  57  77 CALM      29.91S
WORTHINGTON    MOCLDY    63  57  82 S6        29.92F
JACKSON        PTCLDY    61  55  82 S5        29.92F
TRACY          MOCLDY    66  58  75 S5        29.89S
SLAYTON        MOCLDY    60  57  87 CALM      29.92S
$$
MNZ065>067-074>077-082>085-091>093-030400-
   South Central Minnesota

CITY           SKY/WX    TMP DP  RH WIND       PRES   REMARKS
MANKATO        CLEAR     64  55  72 S7        29.90R
NEW ULM        PTCLDY    64  59  82 SW6       29.89S
ST JAMES       PTCLDY    63  57  82 S3        29.91S
FAIRMONT       CLEAR     61  54  77 CALM      29.91S
GLENCOE        CLEAR     65  56  74 S3        29.87S
FARIBAULT      CLEAR     66  57  72 CALM      29.90S
OWATONNA       CLEAR     63  57  82 S7        29.91S
WASECA         CLEAR     59  54  82 CALM      29.93R
ALBERT LEA     CLEAR     63  61  94 CALM      29.92S
$$
MNZ078>079-086>088-094>096-030400-
   Southeast Minnesota

CITY           SKY/WX    TMP DP  RH WIND       PRES   REMARKS
ROCHESTER      CLEAR     61  57  87 SW5       29.93S
RED WING       CLEAR     61  57  88 CALM      29.88S
STANTON        CLEAR     62  58  87 S3        29.88S
DODGE CENTER   CLEAR     63  57  82 SW3       29.92S
WINONA         CLEAR     63  63 100 CALM      29.91R
AUSTIN         CLEAR     63  57  82 CALM      29.93R
PRESTON        CLEAR     62  61  97 CALM      29.94R
$$
ABBREVIATIONS USED IN REMARKS
   TC - TEMPERATURES IN CELSIUS
  WCI - WIND CHILL INDEX
   HX - HEAT INDEX
  VSB - VISIBILITY
$$



USA.gov is the U.S. government's official web portal to all federal, state and local government web resources and services.